Wind_Speed
5 5 5 5 5 6 6 7 6 6 7 7 7 8 8 7 7 7 7 7 8 8 8 8 7 7 7 5 5 6 6 8 9 10 11 12 13 14 15 16 18 20 22 25
6 6 6 6 6 6 7 7 7 6 6 7 7 7 8 8 7 7 7 7 7 8 7 7 7 7 7 6 6 7 7 8 8 9 10 12 13 14 15 16 18 21 23 25
6 7 7 6 6 7 7 8 8 6 6 6 7 7 7 8 7 7 7 7 6 7 7 7 8 8 9 8 8 8 8 8 9 10 12 13 14 15 16 18 20 22 24 25
8 8 7 7 7 8 8 8 8 7 6 7 7 7 8 8 8 8 8 7 7 8 8 8 9 9 10 10 10 10 11 10 11 12 13 14 15 16 18 19 21 22 25 26
9 9 8 8 8 9 9 9 8 8 8 8 8 7 8 8 9 8 8 7 7 8 9 9 10 10 11 11 11 12 12 12 13 13 14 15 16 16 18 19 21 23 25 26
10 10 9 9 9 10 10 9 9 9 9 9 9 8 8 9 9 9 9 9 9 10 10 11 11 12 12 12 13 13 13 14 14 15 16 17 17 18 19 21 22 24 26 27
12 12 11 11 11 12 12 11 11 11 11 11 10 10 10 10 10 10 10 11 11 12 12 12 13 13 13 14 15 16 16 17 18 19 19 20 21 22 22 23 24 25 27 28
16 15 15 14 14 14 13 13 13 13 13 13 13 12 12 11 11 11 11 12 12 12 13 13 14 15 16 16 17 18 19 20 20 21 22 22 23 23 24 25 26 28 29 30
19 18 18 18 18 17 16 16 15 15 15 16 16 15 15 14 14 14 13 13 14 14 15 15 16 17 18 18 19 20 21 21 22 24 25 25 25 26 27 27 28 29 30 30
22 21 22 21 21 20 20 20 19 19 18 18 18 18 17 17 16 17 17 17 17 17 17 18 19 19 20 20 21 23 23 24 26 27 28 28 28 29 30 31 31 32 33 34
24 23 24 23 24 23 23 23 22 22 22 21 20 20 20 19 19 19 19 20 20 20 20 21 21 22 23 23 24 25 26 27 28 29 30 30 31 32 33 33 34 34 35 36
26 26 27 26 25 25 25 25 25 25 25 25 24 23 23 22 22 21 22 22 23 23 24 24 24 25 25 26 27 28 30 31 31 32 32 33 33 33 34 35 35 36 37 37
29 29 29 28 28 28 28 27 28 28 27 27 27 26 26 25 25 25 25 25 25 25 26 26 27 27 28 29 30 31 32 33 34 34 34 34 35 35 35 36 37 38 38 39
31 32 31 30 30 30 30 30 30 29 29 29 29 29 28 28 28 27 27 28 28 28 28 29 29 30 31 31 32 33 34 35 35 36 36 36 37 37 37 38 39 40 40 40
33 34 32 32 32 31 31 31 30 30 30 30 30 31 31 31 31 31 30 30 30 30 30 31 31 32 33 34 35 36 37 37 38 38 38 39 39 39 39 40 40 41 41 41
35 34 34 33 33 32 32 32 31 31 31 32 32 32 32 32 32 32 32 31 31 32 33 33 34 35 35 36 37 38 39 40 40 40 40 41 41 41 41 42 42 42 42 42
35 34 35 34 33 33 33 33 32 32 32 32 33 33 33 33 33 33 32 33 33 34 35 36 36 37 38 38 39 40 41 41 42 42 42 42 42 43 43 43 43 43 43 43
36 36 36 35 34 34 33 34 34 34 33 34 34 34 34 34 34 34 34 34 35 36 36 37 37 38 39 40 41 41 42 43 43 43 43 43 44 44 44 44 44 44 44 44
38 38 37 36 35 34 33 33 33 34 34 34 34 34 34 34 34 34 35 35 36 36 37 38 39 40 40 41 42 43 43 44 44 44 44 44 45 45 45 45 45 45 45 45
38 38 37 36 35 35 34 34 34 35 34 34 34 33 33 34 34 35 36 36 37 38 39 40 41 41 42 42 43 44 44 44 45 45 45 44 44 44 45 45 45 45 45 45
38 38 38 36 36 36 36 36 36 35 35 35 35 35 35 35 35 36 36 37 38 39 40 40 41 42 42 43 43 44 44 44 44 44 44 44 43 43 44 44 44 44 44 44
39 39 38 37 36 36 37 37 37 37 36 36 36 36 37 37 37 37 37 38 39 40 40 41 42 42 42 43 44 44 43 43 43 43 43 43 42 43 43 43 43 43 43 42
39 39 38 37 37 37 37 37 37 37 37 36 36 37 37 38 37 37 38 39 40 40 41 42 43 43 43 43 43 43 43 43 43 42 42 42 42 42 42 42 42 42 41 41
39 39 39 38 37 37 36 36 36 37 37 36 36 36 36 37 37 37 38 38 39 40 41 42 42 43 43 43 43 43 43 42 41 41 42 42 42 41 41 41 41 41 40 40
39 39 39 37 37 36 36 36 36 36 35 35 35 35 35 35 36 37 37 38 39 40 40 41 42 42 42 42 42 42 41 41 41 41 42 41 40 40 40 40 40 40 39 38
38 39 38 37 37 36 36 36 36 35 35 34 34 34 34 35 35 36 36 37 38 39 40 40 40 40 40 41 41 41 41 41 41 40 40 39 39 39 39 39 39 38 37 37
38 38 39 38 38 37 36 36 36 35 35 35 35 35 35 35 36 36 37 37 38 39 39 39 39 39 39 40 40 40 40 40 39 39 38 38 38 37 37 36 35 35 35 34
Wind_Direction
6 359 356 355 351 348 348 348 345 342 342 347 348 349 351 351 352 353 359 7 6 359 354 345 337 334 327 319 310 304 298 290 282 282 284 280 278 279 276 272 270 270 272 270
344 334 334 340 342 344 348 351 352 348 345 341 345 347 347 348 351 351 354 357 360 360 360 360 357 357 355 342 332 320 314 310 305 299 296 289 284 283 281 277 274 274 276 276
328 320 319 324 330 334 341 345 343 343 343 342 346 349 347 346 349 353 352 353 357 358 358 2 4 4 3 358 351 342 329 319 312 308 304 300 291 288 285 282 282 282 282 282
324 323 323 324 325 326 329 334 336 338 337 337 341 341 343 346 350 348 349 351 356 355 350 346 347 348 347 346 344 338 334 327 318 317 312 305 296 292 289 287 288 287 287 287
317 319 324 323 316 316 320 326 331 332 330 326 325 330 334 341 345 345 345 345 344 342 337 333 332 332 333 333 333 330 328 325 318 315 314 311 306 300 297 294 292 293 293 291
305 308 317 317 306 304 309 316 320 325 325 323 318 317 322 325 329 331 332 330 326 326 326 323 321 321 322 323 325 324 323 323 321 316 314 312 309 306 302 300 297 296 295 294
298 299 305 308 302 299 301 305 302 306 309 311 311 311 311 314 316 317 316 315 315 315 318 318 317 315 316 316 317 318 318 318 316 315 313 309 306 304 302 301 301 299 297 296
293 293 295 294 295 295 295 295 295 295 297 299 302 301 301 302 306 309 310 311 312 311 310 312 313 313 313 314 314 313 313 314 313 313 312 309 306 304 304 303 302 301 300 298
289 290 289 287 288 288 286 287 288 290 290 290 293 294 293 292 292 296 300 302 305 306 306 307 309 311 312 313 314 313 313 313 312 311 310 309 308 306 306 306 304 303 303 301
286 285 285 286 286 285 283 283 283 285 286 286 286 287 287 287 286 286 289 294 296 299 302 303 305 306 307 308 310 311 311 309 309 308 308 307 306 305 305 305 305 304 304 303
283 283 281 283 284 283 283 283 283 282 283 285 284 284 284 285 283 283 284 287 289 292 295 298 301 302 302 303 306 307 307 308 308 307 306 304 304 303 303 303 303 303 304 303
280 280 279 280 281 282 283 283 281 281 280 281 281 281 281 281 280 281 282 284 286 287 289 293 296 299 300 301 302 303 304 305 305 305 304 303 302 302 302 302 302 302 302 303
278 277 278 278 278 279 281 283 282 280 280 280 279 279 278 278 279 281 282 284 285 286 288 291 294 297 299 300 301 302 304 304 304 304 304 303 302 301 301 302 302 303 303 304
276 276 276 277 278 278 279 281 282 281 280 279 278 277 278 277 278 279 281 282 283 285 287 290 293 296 298 299 301 301 303 303 303 303 302 302 302 301 301 301 301 301 302 302
276 275 275 275 277 278 278 279 280 280 279 278 278 277 277 277 277 278 280 282 283 285 287 290 292 295 297 298 300 301 301 302 301 301 301 301 301 301 301 301 301 300 301 301
275 275 275 275 275 276 277 277 278 279 279 277 277 277 278 278 278 279 280 282 283 285 286 289 292 294 296 297 299 300 300 300 300 300 300 300 299 300 300 300 301 301 300 300
274 274 274 273 273 274 275 276 276 278 279 278 278 277 277 277 278 279 280 281 283 285 287 289 291 293 295 296 298 299 299 299 299 299 299 298 298 299 299 299 300 300 300 300
273 273 273 273 273 273 274 275 275 276 278 278 278 278 277 277 277 277 279 281 283 285 287 288 290 292 294 295 296 297 297 298 299 299 299 298 299 298 298 299 299 299 300 300
272 271 272 272 272 273 274 275 275 275 276 277 278 277 277 277 277 278 279 281 282 284 286 288 290 292 293 295 296 296 297 298 298 298 298 298 298 298 299 299 299 299 299 299
271 270 269 270 270 271 273 273 273 275 275 276 277 277 277 278 279 279 280 281 282 284 286 288 290 292 293 295 296 296 297 297 298 298 298 298 299 299 299 300 300 300 300 299
269 268 268 269 269 270 271 272 273 274 274 274 275 276 277 278 279 279 280 282 284 285 287 289 291 292 294 296 296 297 297 297 297 298 299 299 299 299 300 300 300 301 301 300
267 266 267 267 268 269 270 271 271 272 273 273 275 276 277 279 279 280 282 284 285 287 288 290 292 294 295 296 297 297 297 298 298 299 300 300 299 299 300 300 301 301 301 300
266 266 266 266 266 268 269 270 271 272 273 274 275 276 277 279 280 281 282 284 287 289 290 291 293 295 296 297 298 298 298 299 299 299 300 299 299 299 299 301 301 301 301 300
266 266 266 266 266 267 268 270 272 273 273 274 275 276 278 279 280 282 284 286 289 291 293 294 295 296 297 299 299 299 299 299 299 299 299 299 299 299 299 301 301 301 300 300
264 263 264 265 265 266 267 270 272 273 274 274 276 277 279 280 282 284 286 288 291 293 295 297 298 298 299 300 300 300 300 300 300 300 300 300 300 300 300 300 301 301 300 299
262 263 263 264 265 266 268 270 272 273 274 275 276 277 280 282 283 285 287 289 291 294 296 298 299 299 300 301 301 301 301 301 301 301 301 300 300 300 300 300 301 301 301 301
262 263 262 263 265 266 267 269 270 272 273 274 275 278 281 283 284 286 287 289 292 294 296 298 299 300 301 302 302 303 303 302 302 302 302 301 301 302 303 303 303 303 303 302
Height
5666 5664 5663 5662 5661 5660 5659 5658 5656 5656 5654 5653 5652 5650 5649 5648 5646 5644 5643 5641 5640 5638 5636 5635 5634 5632 5631 5631 5630 5629 5629 5629 5628 5627 5626 5626 5626 5625 5625 5625 5626 5627 5627 5628
5666 5665 5664 5663 5662 5660 5659 5657 5656 5655 5654 5653 5652 5650 5648 5647 5646 5644 5643 5641 5640 5638 5637 5635 5634 5632 5631 5629 5628 5628 5627 5626 5625 5624 5623 5622 5622 5621 5621 5621 5621 5621 5621 5621
5666 5664 5664 5663 5662 5660 5659 5658 5656 5655 5655 5652 5651 5650 5648 5647 5645 5644 5642 5641 5640 5638 5637 5635 5634 5632 5631 5629 5628 5626 5625 5624 5623 5622 5621 5619 5618 5617 5617 5616 5616 5616 5615 5614
5665 5665 5663 5665 5661 5660 5658 5657 5655 5654 5653 5652 5650 5649 5647 5646 5644 5643 5642 5640 5639 5638 5636 5635 5634 5632 5631 5629 5627 5625 5624 5622 5620 5619 5617 5616 5614 5613 5612 5612 5611 5610 5608 5607
5664 5662 5662 5662 5660 5658 5657 5656 5654 5653 5652 5651 5649 5648 5647 5645 5643 5642 5641 5639 5638 5637 5635 5634 5632 5631 5629 5628 5626 5624 5622 5620 5618 5616 5614 5613 5611 5609 5608 5606 5605 5603 5601 5599
5662 5660 5660 5661 5658 5656 5656 5655 5654 5652 5650 5649 5648 5647 5646 5644 5642 5641 5639 5638 5637 5635 5634 5632 5631 5629 5627 5626 5624 5622 5620 5618 5616 5614 5611 5609 5607 5605 5603 5601 5598 5596 5594 5591
5660 5658 5658 5658 5655 5654 5654 5655 5652 5650 5649 5647 5646 5646 5644 5642 5641 5639 5638 5636 5635 5633 5632 5630 5628 5626 5625 5623 5621 5619 5617 5615 5613 5610 5608 5605 5603 5600 5598 5595 5592 5589 5587 5584
5657 5656 5658 5654 5652 5651 5651 5649 5648 5647 5646 5645 5644 5642 5641 5640 5638 5637 5635 5634 5632 5631 5629 5627 5625 5623 5621 5619 5617 5615 5613 5611 5608 5606 5603 5600 5597 5594 5591 5588 5585 5582 5579 5576
5655 5655 5652 5650 5648 5647 5646 5645 5644 5643 5642 5641 5640 5639 5637 5636 5635 5634 5632 5631 5629 5628 5626 5624 5622 5620 5617 5615 5613 5610 5608 5605 5603 5600 5597 5594 5591 5588 5585 5581 5578 5574 5571 5568
5648 5649 5647 5645 5643 5642 5641 5640 5639 5638 5637 5636 5635 5634 5633 5632 5631 5630 5628 5627 5625 5624 5622 5620 5617 5615 5613 5610 5608 5605 5602 5600 5597 5594 5591 5587 5584 5581 5577 5574 5570 5566 5563 5559
5641 5642 5640 5639 5637 5636 5635 5634 5633 5632 5631 5630 5629 5628 5627 5626 5625 5624 5623 5622 5620 5619 5617 5615 5612 5610 5607 5604 5602 5599 5596 5593 5590 5587 5583 5580 5576 5573 5569 5566 5562 5558 5554 5550
5634 5634 5632 5632 5631 5629 5628 5627 5626 5625 5625 5624 5623 5622 5621 5620 5619 5618 5617 5615 5614 5612 5610 5608 5606 5603 5601 5598 5595 5592 5589 5586 5582 5579 5575 5572 5568 5564 5560 5556 5552 5548 5544 5540
5626 5625 5624 5624 5623 5622 5620 5619 5618 5618 5617 5616 5616 5615 5614 5613 5612 5611 5610 5608 5607 5605 5603 5601 5599 5596 5593 5591 5588 5584 5581 5578 5574 5570 5567 5563 5559 5555 5551 5547 5543 5538 5534 5530
5617 5616 5615 5615 5614 5613 5612 5611 5610 5609 5609 5608 5607 5606 5606 5605 5604 5603 5601 5600 5599 5597 5595 5593 5590 5588 5585 5582 5579 5576 5572 5569 5565 5561 5557 5553 5549 5545 5541 5537 5533 5528 5524 5520
5607 5606 5606 5606 5605 5604 5603 5602 5601 5600 5600 5599 5598 5598 5597 5596 5595 5594 5593 5591 5590 5588 5586 5584 5582 5579 5576 5573 5570 5566 5563 5559 5555 5551 5547 5543 5539 5535 5531 5527 5523 5519 5514 5509
5597 5596 5595 5595 5595 5594 5593 5592 5592 5591 5590 5590 5589 5588 5587 5586 5585 5584 5583 5582 5580 5579 5577 5575 5572 5569 5566 5563 5560 5556 5553 5549 5545 5541 5537 5533 5528 5524 5520 5516 5512 5507 5503 5499
5585 5585 5585 5585 5585 5584 5583 5583 5582 5581 5580 5580 5579 5578 5577 5576 5575 5574 5573 5572 5570 5569 5567 5564 5562 5559 5556 5553 5549 5545 5541 5537 5533 5529 5525 5521 5517 5513 5509 5504 5500 5496 5491 5487
5573 5574 5574 5574 5574 5573 5573 5572 5571 5571 5570 5570 5569 5568 5567 5566 5565 5564 5563 5561 5560 5558 5556 5553 5551 5548 5545 5541 5538 5534 5530 5526 5521 5518 5514 5509 5505 5501 5497 5492 5488 5483 5479 5474
5561 5561 5562 5562 5562 5562 5562 5561 5561 5560 5559 5559 5558 5557 5556 5555 5554 5553 5552 5551 5549 5547 5545 5542 5540 5537 5533 5529 5525 5522 5518 5513 5509 5505 5501 5497 5493 5488 5484 5480 5475 5471 5467 5462
5548 5549 5550 5550 5550 5551 5551 5550 5550 5549 5548 5548 5547 5546 5546 5545 5544 5543 5542 5540 5538 5536 5533 5531 5528 5524 5521 5517 5513 5509 5505 5501 5497 5493 5488 5484 5480 5476 5471 5467 5463 5458 5454 5450
5536 5537 5537 5538 5539 5539 5539 5539 5538 5538 5537 5537 5536 5536 5535 5534 5533 5532 5530 5529 5526 5524 5521 5518 5515 5512 5509 5505 5501 5496 5492 5488 5484 5480 5476 5472 5468 5463 5459 5455 5450 5446 5442 5437
5523 5524 5525 5525 5526 5526 5527 5526 5526 5526 5526 5525 5525 5525 5524 5523 5522 5520 5519 5517 5515 5512 5509 5506 5503 5500 5496 5492 5488 5483 5479 5475 5471 5467 5463 5459 5455 5451 5447 5442 5438 5434 5430 5426
5510 5511 5512 5513 5514 5514 5514 5514 5514 5514 5514 5514 5514 5513 5512 5512 5510 5509 5508 5505 5503 5500 5497 5494 5491 5487 5484 5479 5475 5471 5467 5463 5459 5455 5451 5447 5443 5439 5435 5431 5426 5422 5418 5414
5498 5499 5500 5501 5501 5502 5502 5502 5502 5503 5503 5502 5502 5501 5501 5500 5499 5497 5495 5494 5491 5489 5486 5482 5479 5475 5471 5467 5463 5459 5455 5450 5446 5443 5439 5435 5431 5426 5423 5419 5415 5410 5406 5402
5485 5487 5488 5489 5489 5490 5490 5491 5491 5491 5491 5491 5491 5490 5489 5488 5487 5486 5484 5482 5480 5477 5474 5470 5467 5463 5459 5455 5451 5447 5443 5439 5435 5431 5427 5423 5419 5415 5411 5407 5403 5399 5395 5391
5473 5475 5476 5477 5477 5478 5478 5479 5479 5480 5480 5480 5480 5479 5478 5477 5476 5474 5473 5471 5468 5465 5462 5459 5455 5451 5447 5444 5440 5435 5431 5427 5423 5419 5415 5411 5407 5403 5400 5396 5392 5388 5384 5380
5461 5462 5464 5465 5466 5466 5466 5467 5468 5468 5468 5469 5469 5468 5467 5466 5465 5463 5461 5459 5456 5454 5450 5447 5443 5440 5436 5432 5428 5424 5420 5416 5412 5408 5404 5400 5397 5393 5389 5385 5381 5377 5374 5370